Theta_e
308 308 308 308 308 307 306 305 305 315 316 304 305 301 302 304 308 310 308 310 309 307 307 305 305 305 308 312 310 305 309 307 301 303 305 306 307 306 306 300 299 301 299 298
308 308 308 308 307 307 305 309 311 316 316 301 301 305 303 307 307 307 305 304 310 311 307 304 307 307 307 309 310 308 309 304 300 299 302 304 303 304 306 306 307 301 296 298
308 308 308 308 307 307 309 310 306 313 315 314 306 303 302 303 310 309 309 308 311 309 306 308 304 305 306 308 309 310 314 307 302 298 300 303 301 302 303 305 301 301 300 302
309 309 308 308 307 307 310 312 306 308 305 307 308 308 305 303 303 309 311 309 308 307 304 305 306 307 305 307 305 308 311 304 305 304 301 301 302 301 301 301 302 299 302 300
309 309 309 308 307 306 313 307 304 308 309 310 308 306 305 304 305 307 305 307 307 308 305 306 304 307 308 305 307 306 309 305 305 301 301 300 299 299 300 300 301 301 301 303
308 309 309 309 308 309 310 308 311 309 305 307 306 304 304 305 307 308 308 309 308 305 305 309 311 312 312 311 308 308 307 303 302 298 300 299 297 301 302 302 304 304 300 305
309 309 309 309 308 307 311 307 305 309 301 303 302 305 307 306 308 306 308 310 308 308 313 313 314 313 312 311 309 312 307 306 303 298 299 290 301 303 303 302 303 304 303 304
309 309 309 309 309 308 312 311 309 311 304 306 304 306 308 309 310 308 308 310 312 312 309 305 302 303 305 305 308 308 309 307 301 297 297 299 300 301 302 301 301 304 304 303
309 309 309 310 309 308 312 312 312 313 309 306 308 307 309 306 307 307 310 315 317 312 307 305 296 297 299 300 303 309 308 309 302 299 293 291 301 302 305 305 298 302 302 302
308 309 309 310 310 309 309 312 313 313 310 312 312 307 307 310 309 309 310 311 312 315 307 301 299 298 302 297 298 301 303 303 298 296 297 297 301 302 305 296 294 300 301 301
307 309 309 310 310 309 308 312 313 310 313 313 314 314 311 310 310 306 311 310 311 311 304 302 303 302 303 301 301 300 299 299 300 300 296 292 302 300 297 296 300 301 301 300
307 308 309 309 309 309 308 312 314 313 312 314 316 317 317 316 315 312 314 311 310 311 307 308 308 303 306 301 298 303 299 301 300 298 295 300 303 300 300 300 300 299 298 298
308 308 309 309 309 309 307 313 313 315 315 315 316 314 319 322 319 319 311 312 314 314 315 310 309 302 307 300 301 300 301 302 302 299 298 299 299 299 299 298 296 296 296 297
308 308 308 308 309 308 307 313 314 314 315 309 312 320 317 321 321 317 320 317 318 318 313 310 309 305 305 303 302 302 302 301 300 297 298 298 298 298 295 295 294 294 295 296
307 308 308 308 309 308 310 315 318 316 311 308 312 318 319 321 319 316 319 317 313 308 307 307 303 305 304 305 303 300 302 298 296 296 300 300 298 297 296 293 292 292 291 292
308 308 308 308 308 306 315 315 318 318 316 312 308 317 315 318 316 315 314 314 310 307 305 304 305 305 304 301 299 298 301 302 302 300 302 300 298 297 295 294 292 291 291 292
307 307 308 308 308 313 314 312 313 309 317 313 308 309 314 317 317 315 311 314 312 310 306 306 305 304 303 302 296 299 301 301 301 302 300 295 295 293 295 294 292 292 293 293
307 307 309 309 308 308 313 316 311 312 313 313 308 309 309 316 312 311 316 309 310 310 307 306 305 303 303 298 300 300 301 300 299 298 299 298 296 294 293 294 294 292 291 292
306 306 309 312 311 314 316 309 310 317 313 307 309 305 304 315 314 316 312 313 304 308 305 305 305 303 298 301 301 300 300 300 298 298 296 295 293 291 292 292 291 290 290 291
307 309 312 311 312 307 310 312 310 310 312 311 306 314 306 312 311 308 309 309 305 299 303 306 302 302 304 304 304 304 303 302 300 294 292 293 290 290 292 290 291 291 290 290
308 304 305 308 310 311 311 307 308 311 307 312 312 311 308 315 306 306 310 305 305 298 301 300 300 299 302 304 304 304 303 302 300 299 298 295 294 292 291 290 290 291 290 290
303 302 303 304 308 308 303 305 309 308 305 311 309 310 313 312 316 307 307 302 303 294 304 300 297 302 304 303 302 302 301 300 298 298 296 294 295 294 293 292 291 291 291 291
305 299 297 302 306 294 297 297 303 305 310 311 311 308 312 311 311 308 305 298 297 305 298 297 301 304 303 304 302 300 300 299 298 296 296 295 294 294 294 293 293 293 291 291
301 300 290 300 301 303 304 306 307 312 312 311 311 310 308 311 306 307 297 302 302 295 292 294 302 304 304 303 302 300 298 298 297 295 295 294 294 294 294 294 295 294 292 292
298 300 291 300 306 308 309 310 311 314 316 313 310 310 308 305 302 303 300 295 292 294 296 302 305 306 304 302 301 300 299 298 297 295 295 294 294 294 294 295 297 295 295 294
298 299 298 304 303 306 308 307 310 315 313 315 312 306 302 300 302 296 294 293 292 299 304 305 307 306 304 303 302 301 300 299 297 296 296 295 295 295 295 295 295 294 293 293
297 300 306 305 306 306 308 310 312 314 309 306 306 300 298 302 297 295 301 297 302 304 305 306 308 306 305 304 302 301 300 299 297 297 297 297 298 298 296 295 294 294 295 294
Wind_Speed
26 26 26 28 29 28 6 4 4 7 7 9 8 8 12 1 11 2 5 5 6 4 4 4 3 9 5 6 11 17 11 8 10 11 5 5 5 10 16 10 13 9 9 5
26 27 27 28 30 25 4 4 6 5 6 4 7 5 10 2 7 4 2 4 3 2 4 5 6 6 3 7 6 8 8 5 11 8 6 4 7 5 7 5 6 8 11 6
27 28 28 28 30 25 3 5 5 6 4 5 2 7 6 8 5 4 2 5 4 6 6 2 0 4 3 6 7 3 1 2 7 7 1 7 7 9 9 11 12 14 11 10
27 28 29 30 31 30 6 5 5 3 6 11 10 8 3 9 6 4 4 4 4 5 5 9 14 14 6 3 4 1 4 14 10 5 7 9 9 8 9 12 13 11 6 4
27 27 27 29 32 33 5 5 5 3 4 8 10 10 11 10 7 6 3 6 5 4 7 6 8 8 10 6 8 9 4 5 9 9 6 13 7 0 2 1 1 2 3 10
26 26 26 26 27 22 6 4 2 6 8 8 9 12 11 9 3 10 7 7 10 11 8 7 8 7 7 3 9 8 7 6 8 11 7 6 11 6 3 2 6 8 7 11
25 24 24 22 22 22 4 4 4 8 6 10 11 15 12 15 14 10 10 9 6 5 3 5 9 11 11 11 10 3 7 11 7 5 8 12 8 5 4 5 6 7 6 6
24 24 22 21 18 19 5 5 4 5 7 2 6 9 9 8 10 12 14 11 6 1 5 3 5 6 6 7 9 7 3 6 5 7 10 4 7 3 2 1 8 4 2 5
24 23 21 20 17 16 7 5 5 4 7 9 7 8 10 7 7 8 9 8 4 4 3 2 4 1 4 4 5 5 5 2 6 6 8 12 9 4 2 2 7 5 5 7
25 23 21 19 17 15 9 3 7 6 4 7 10 7 8 9 5 2 4 6 4 5 2 3 2 4 5 3 3 1 5 6 9 8 10 6 4 2 1 7 4 4 6 7
24 22 20 18 16 14 9 3 5 6 3 6 7 7 9 8 9 6 7 6 3 2 2 3 3 2 4 3 2 3 4 4 4 4 8 6 4 3 5 5 1 5 7 9
24 22 20 17 14 12 9 2 3 4 5 5 2 4 5 6 7 6 5 4 3 6 2 1 2 3 2 1 3 2 3 6 3 6 4 7 10 12 6 5 6 8 9 9
22 21 21 16 12 9 7 4 5 4 4 5 5 4 4 3 5 5 6 5 3 4 4 4 2 4 3 4 2 4 4 1 2 8 8 8 8 8 8 8 7 7 8 9
23 22 20 16 11 6 6 3 4 4 4 5 7 2 2 3 4 2 2 5 4 1 3 2 2 2 4 3 4 4 5 4 7 8 8 9 7 7 6 6 6 7 8 9
25 24 21 14 9 5 7 3 1 2 6 5 2 4 2 2 2 4 5 3 2 2 1 1 3 2 2 3 3 4 1 4 4 5 9 3 8 6 5 4 6 7 8 9
26 25 20 14 6 5 4 5 3 1 3 5 3 4 4 2 4 5 4 3 2 3 3 4 4 3 5 1 2 5 7 7 5 6 7 9 8 6 5 5 6 6 6 7
27 25 17 9 7 6 4 6 5 2 3 4 3 3 5 1 3 4 2 2 2 2 3 2 3 3 4 1 2 11 9 9 10 9 8 6 3 4 5 5 5 3 5 7
26 21 11 4 8 10 4 4 2 5 5 4 4 2 5 4 4 3 2 4 2 1 3 3 2 5 3 3 8 12 11 10 8 7 7 8 7 6 3 3 3 4 7 8
24 10 4 4 5 4 5 7 4 4 5 3 3 3 3 5 2 1 4 3 4 2 3 2 3 3 3 3 14 14 12 8 9 7 7 7 7 5 2 5 6 7 8 9
19 6 5 4 4 8 4 5 5 6 5 5 5 1 4 4 4 4 3 3 2 4 4 3 3 3 6 7 11 11 11 9 10 7 6 7 6 5 5 6 7 7 8 8
6 6 4 7 6 4 5 4 5 5 5 6 4 6 3 3 5 2 1 1 1 3 5 4 3 3 9 12 11 10 9 8 6 3 9 8 7 7 7 7 7 7 7 7
9 8 6 5 5 4 5 5 4 6 5 6 6 6 4 5 1 4 4 2 2 1 4 3 2 5 13 14 14 12 10 9 9 9 11 11 10 9 8 7 7 6 7 7
2 3 4 4 3 4 7 7 5 5 6 7 7 7 5 4 4 2 4 5 2 3 4 3 2 10 12 14 13 13 11 10 10 10 12 11 11 9 7 7 6 5 6 6
5 4 5 6 6 6 5 6 5 3 4 8 7 6 5 2 6 2 4 3 4 3 3 3 7 12 14 14 13 13 13 11 12 12 12 11 10 8 6 5 4 5 4 4
5 4 6 7 5 6 5 6 8 2 3 7 5 4 5 4 4 2 3 5 4 4 2 2 8 14 15 15 14 13 12 12 12 12 12 11 10 8 7 5 3 3 3 3
4 5 6 6 8 4 5 6 5 2 3 2 3 4 4 5 3 5 6 3 3 2 2 7 10 14 14 15 14 12 12 12 13 12 11 10 9 7 6 6 4 5 5 5
4 6 6 8 7 7 3 5 4 2 3 5 3 6 4 4 4 3 2 3 2 5 6 7 11 14 15 15 14 13 12 13 13 12 11 9 7 6 6 6 6 5 4 4
Wind_Direction
339 337 337 335 333 338 318 279 103 136 180 186 209 195 180 316 169 172 100 55 86 133 152 142 106 172 110 189 183 199 214 241 193 186 68 320 328 245 201 228 187 229 298 97
344 340 338 339 339 347 305 341 82 164 258 170 184 115 180 265 177 159 165 100 73 105 131 131 117 107 78 141 155 156 166 207 207 172 174 165 232 209 267 271 280 224 245 193
342 341 341 342 343 348 267 271 84 118 175 9 39 168 150 167 46 76 92 105 132 144 142 83 46 147 72 58 84 61 134 154 276 244 351 341 188 218 221 232 248 249 225 135
343 344 346 347 348 346 282 343 74 42 30 33 61 67 184 160 131 89 39 156 211 178 157 160 174 185 145 119 128 73 244 241 244 254 338 313 286 228 215 225 251 264 264 211
347 348 350 352 353 338 56 9 354 307 20 39 46 30 37 70 91 4 41 123 114 111 89 9 147 165 168 170 154 167 172 212 225 209 227 308 263 197 230 41 223 183 260 117
349 349 352 356 1 348 32 12 332 283 23 4 33 24 22 42 119 58 49 120 114 83 44 46 68 69 73 83 186 169 149 141 192 187 138 178 209 63 9 57 49 336 268 73
347 349 352 356 6 2 4 31 279 89 51 22 358 18 28 46 58 85 63 42 85 58 128 90 91 90 93 83 63 9 179 186 182 173 208 234 81 69 40 64 43 45 88 81
348 349 351 354 360 1 345 16 323 340 78 79 40 13 5 85 95 68 59 45 27 222 185 198 164 165 166 78 50 60 42 218 177 235 221 118 166 70 19 291 119 50 39 60
351 350 349 350 357 0 316 36 316 316 329 29 346 343 27 11 5 97 67 61 55 205 260 217 242 194 23 151 137 54 84 83 237 191 231 237 79 99 106 198 188 60 13 31
349 350 349 348 351 357 326 16 357 280 65 48 1 34 7 2 356 351 51 2 1 324 227 209 241 140 331 223 256 269 220 228 234 250 248 95 60 22 219 232 64 28 12 6
344 346 347 345 346 352 331 22 1 326 29 71 18 24 21 18 11 5 18 241 100 353 267 284 104 249 79 122 29 336 299 284 217 254 241 215 20 161 294 43 64 0 355 358
344 343 344 344 344 346 328 316 16 329 286 39 330 329 341 349 349 322 47 50 27 20 268 117 173 165 150 168 155 162 206 10 62 348 64 95 62 83 87 19 355 7 341 0
336 338 338 339 339 341 325 328 345 254 270 175 209 82 71 345 357 350 309 93 5 84 329 1 52 105 264 177 135 134 116 239 114 182 131 119 107 91 50 33 23 3 356 341
334 336 334 329 328 324 301 316 5 276 293 284 114 171 144 352 346 264 317 84 91 99 298 32 28 102 300 70 59 339 26 196 139 89 121 135 123 78 55 38 16 3 350 346
333 333 331 322 312 294 265 265 303 317 309 336 84 168 102 356 14 141 136 127 281 355 139 69 69 85 207 69 190 111 282 101 242 57 116 7 87 92 61 25 10 5 352 350
330 332 326 311 276 231 245 204 152 241 308 274 242 94 169 142 104 116 112 100 60 56 37 73 86 59 288 176 75 100 108 84 17 110 90 82 97 88 42 22 17 7 357 354
330 327 319 295 210 224 298 4 30 314 274 264 249 181 139 183 196 175 117 184 89 11 104 85 106 143 261 108 184 146 128 111 97 102 124 126 48 85 48 35 22 15 15 16
329 328 322 159 175 278 221 121 265 258 272 255 268 178 184 184 193 186 189 177 156 84 92 172 184 150 212 176 121 143 142 127 121 101 72 80 106 95 50 49 38 42 36 24
326 330 133 178 220 238 67 342 186 228 291 280 234 257 141 180 142 126 175 242 191 143 207 127 226 163 211 118 158 159 160 166 146 118 109 112 106 103 81 66 52 43 38 32
310 264 236 215 57 335 264 193 200 197 186 221 260 128 193 233 145 185 199 214 131 216 80 144 243 202 91 143 151 152 159 146 146 147 145 135 132 134 95 77 62 50 44 33
344 337 319 345 313 236 223 249 227 157 213 195 225 208 186 164 240 144 290 45 127 231 118 259 188 208 152 152 145 142 139 146 146 114 108 128 139 154 120 97 78 66 59 47
314 307 302 284 247 229 243 220 187 217 214 161 194 163 219 122 225 236 167 245 194 229 144 235 229 103 144 154 147 142 140 134 133 131 129 140 148 127 121 108 94 83 76 70
234 206 251 237 180 223 224 212 207 210 166 159 168 159 161 152 222 173 203 219 114 139 220 228 220 132 155 154 150 147 142 139 133 131 135 138 132 135 131 126 119 110 104 100
252 240 274 231 191 234 224 281 290 103 166 155 182 132 202 126 184 154 220 76 191 230 219 238 138 160 157 156 154 150 151 150 143 142 143 144 149 145 142 130 124 123 126 134
254 207 246 229 286 286 299 313 292 184 204 144 154 149 212 156 158 208 127 186 227 225 220 129 119 153 155 157 162 157 155 156 151 152 153 156 155 159 152 146 147 122 122 117
248 248 270 261 276 309 18 325 327 331 227 244 209 151 196 180 196 187 202 212 223 179 125 100 138 151 157 158 163 158 159 158 155 158 159 161 167 171 142 148 141 136 115 97
240 239 240 266 291 306 307 294 326 336 272 246 233 190 159 114 206 205 170 215 31 98 115 133 143 155 155 157 154 156 158 159 161 161 165 170 174 174 197 183 150 144 139 124